| time (UTC) | temp F | wind direction | speed MPH | gust MPH | rain 1hr in | rain 24hr in | rain mn in | humidity % | barometer mb |
| 20260508213304 | 69 | 107 | 5.0 | 12.0 | 0.00 | 0.00 | 0.00 | 22 | 1011.9 |
| 20260508212306 | 69 | 172 | 5.0 | 12.0 | 0.00 | 0.00 | 0.00 | 22 | 1011.8 |
| 20260508211304 | 69 | 133 | 5.0 | 14.0 | 0.00 | 0.00 | 0.00 | 23 | 1012.0 |
| 20260508210803 | 68 | 137 | 5.0 | 14.0 | 0.00 | 0.00 | 0.00 | 23 | 1012.0 |
| 20260508205804 | 69 | 139 | 3.0 | 12.0 | 0.00 | 0.00 | 0.00 | 22 | 1012.1 |
| 20260508205306 | 70 | 129 | 5.0 | 9.0 | 0.00 | 0.00 | 0.00 | 22 | 1012.1 |
| 20260508204803 | 70 | 127 | 3.0 | 9.0 | 0.00 | 0.00 | 0.00 | 22 | 1011.9 |
| 20260508204304 | 70 | 110 | 3.0 | 12.0 | 0.00 | 0.00 | 0.00 | 21 | 1012.0 |
| 20260508202804 | 69 | 110 | 3.0 | 7.0 | 0.00 | 0.00 | 0.00 | 21 | 1012.0 |
| 20260508200804 | 69 | 113 | 5.0 | 10.0 | 0.00 | 0.00 | 0.00 | 23 | 1012.1 |
| 20260508200304 | 69 | 113 | 4.0 | 9.0 | 0.00 | 0.00 | 0.00 | 23 | 1012.1 |
| 20260508195804 | 69 | 110 | 5.0 | 13.0 | 0.00 | 0.00 | 0.00 | 23 | 1012.3 |
| 20260508194804 | 69 | 60 | 3.0 | 10.0 | 0.00 | 0.00 | 0.00 | 23 | 1012.4 |
| 20260508193304 | 69 | 102 | 4.0 | 15.0 | 0.00 | 0.00 | 0.00 | 23 | 1012.4 |
| 20260508192803 | 68 | 105 | 3.0 | 9.0 | 0.00 | 0.00 | 0.00 | 24 | 1012.4 |
| 20260508192306 | 68 | 122 | 5.0 | 10.0 | 0.00 | 0.00 | 0.00 | 23 | 1012.4 |
| 20260508191804 | 68 | 113 | 3.0 | 7.0 | 0.00 | 0.00 | 0.00 | 23 | 1012.3 |
| 20260508191303 | 69 | 61 | 3.0 | 7.0 | 0.00 | 0.00 | 0.00 | 22 | 1012.3 |
| 20260508190804 | 69 | 99 | 5.0 | 12.0 | 0.00 | 0.00 | 0.00 | 22 | 1012.6 |
| 20260508190304 | 69 | 104 | 3.0 | 7.0 | 0.00 | 0.00 | 0.00 | 22 | 1012.6 |
| 20260508185803 | 68 | 68 | 6.0 | 17.0 | 0.00 | 0.00 | 0.00 | 23 | 1012.6 |
| 20260508185306 | 69 | 119 | 5.0 | 8.0 | 0.00 | 0.00 | 0.00 | 22 | 1012.6 |
| 20260508184804 | 69 | 100 | 7.0 | 15.0 | 0.00 | 0.00 | 0.00 | 22 | 1012.5 |
| 20260508184304 | 71 | 104 | 3.0 | 9.0 | 0.00 | 0.00 | 0.00 | 21 | 1012.6 |
| 20260508182804 | 71 | 103 | 3.0 | 13.0 | 0.00 | 0.00 | 0.00 | 22 | 1012.8 |
| 20260508181304 | 69 | 94 | 5.0 | 13.0 | 0.00 | 0.00 | 0.00 | 22 | 1013.0 |
| 20260508180803 | 69 | 114 | 5.0 | 10.0 | 0.00 | 0.00 | 0.00 | 22 | 1012.8 |
| 20260508175804 | 69 | 117 | 6.0 | 10.0 | 0.00 | 0.00 | 0.00 | 22 | 1012.8 |
| 20260508174804 | 70 | 292 | 3.0 | 9.0 | 0.00 | 0.00 | 0.00 | 23 | 1013.0 |
| 20260508174303 | 70 | 112 | 2.0 | 8.0 | 0.00 | 0.00 | 0.00 | 23 | 1012.9 |
| 20260508173804 | 70 | 74 | 3.0 | 9.0 | 0.00 | 0.00 | 0.00 | 23 | 1013.1 |
| 20260508173304 | 69 | 89 | 3.0 | 9.0 | 0.00 | 0.00 | 0.00 | 24 | 1012.9 |
| 20260508172804 | 69 | 119 | 5.0 | 12.0 | 0.00 | 0.00 | 0.00 | 22 | 1012.9 |
| 20260508172307 | 69 | 54 | 5.0 | 10.0 | 0.00 | 0.00 | 0.00 | 23 | 1013.0 |
| 20260508171804 | 69 | 115 | 3.0 | 10.0 | 0.00 | 0.00 | 0.00 | 22 | 1013.1 |
| 20260508171304 | 70 | 71 | 3.0 | 9.0 | 0.00 | 0.00 | 0.00 | 23 | 1013.0 |
| 20260508170304 | 70 | 93 | 3.0 | 12.0 | 0.00 | 0.00 | 0.00 | 24 | 1013.1 |
| 20260508165804 | 71 | 97 | 3.0 | 9.0 | 0.00 | 0.00 | 0.00 | 22 | 1013.2 |
| 20260508165306 | 71 | 123 | 7.0 | 13.0 | 0.00 | 0.00 | 0.00 | 21 | 1013.1 |
| 20260508164804 | 71 | 77 | 5.0 | 12.0 | 0.00 | 0.00 | 0.00 | 21 | 1013.3 |
| 20260508164304 | 71 | 110 | 6.0 | 15.0 | 0.00 | 0.00 | 0.00 | 22 | 1013.2 |
| 20260508163804 | 72 | 10 | 4.0 | 10.0 | 0.00 | 0.00 | 0.00 | 23 | 1013.3 |
| 20260508163304 | 71 | 82 | 3.0 | 15.0 | 0.00 | 0.00 | 0.00 | 22 | 1013.1 |
| 20260508162804 | 71 | 88 | 3.0 | 13.0 | 0.00 | 0.00 | 0.00 | 22 | 1013.1 |
| 20260508162306 | 71 | 99 | 5.0 | 14.0 | 0.00 | 0.00 | 0.00 | 22 | 1013.2 |
| 20260508160804 | 71 | 105 | 3.0 | 12.0 | 0.00 | 0.00 | 0.00 | 22 | 1013.2 |
| 20260508160303 | 70 | 96 | 5.0 | 10.0 | 0.00 | 0.00 | 0.00 | 22 | 1013.3 |
| 20260508155804 | 70 | 67 | 4.0 | 13.0 | 0.00 | 0.00 | 0.00 | 23 | 1013.2 |
| 20260508155306 | 70 | 96 | 5.0 | 13.0 | 0.00 | 0.00 | 0.00 | 22 | 1013.4 |
| 20260508154804 | 69 | 112 | 5.0 | 12.0 | 0.00 | 0.00 | 0.00 | 24 | 1013.3 |
| 20260508153804 | 69 | 118 | 4.0 | 10.0 | 0.00 | 0.00 | 0.00 | 25 | 1013.2 |
| 20260508153304 | 68 | 120 | 4.0 | 14.0 | 0.00 | 0.00 | 0.00 | 25 | 1013.2 |
| 20260508152804 | 68 | 96 | 3.0 | 13.0 | 0.00 | 0.00 | 0.00 | 26 | 1013.1 |
| 20260508152306 | 68 | 90 | 4.0 | 13.0 | 0.00 | 0.00 | 0.00 | 26 | 1013.3 |
| 20260508151803 | 68 | 89 | 6.0 | 12.0 | 0.00 | 0.00 | 0.00 | 25 | 1013.1 |
| 20260508151303 | 67 | 78 | 5.0 | 9.0 | 0.00 | 0.00 | 0.00 | 26 | 1013.2 |
| 20260508150804 | 67 | 125 | 3.0 | 9.0 | 0.00 | 0.00 | 0.00 | 27 | 1013.1 |
| 20260508150304 | 66 | 143 | 3.0 | 12.0 | 0.00 | 0.00 | 0.00 | 28 | 1013.1 |
| 20260508145804 | 65 | 110 | 2.0 | 9.0 | 0.00 | 0.00 | 0.00 | 30 | 1013.1 |
| 20260508145306 | 64 | 106 | 3.0 | 8.0 | 0.00 | 0.00 | 0.00 | 31 | 1013.2 |
| 20260508143804 | 60 | 99 | 3.0 | 6.0 | 0.00 | 0.00 | 0.00 | 32 | 1013.1 |
| 20260508143304 | 59 | 124 | 3.0 | 9.0 | 0.00 | 0.00 | 0.00 | 34 | 1013.2 |
| 20260508142804 | 58 | 117 | 2.0 | 7.0 | 0.00 | 0.00 | 0.00 | 36 | 1013.3 |
| 20260508142306 | 56 | 53 | 3.0 | 6.0 | 0.00 | 0.00 | 0.00 | 36 | 1013.2 |
| 20260508141804 | 55 | 69 | 3.0 | 9.0 | 0.00 | 0.00 | 0.00 | 37 | 1013.2 |
| 20260508140804 | 53 | 65 | 2.0 | 6.0 | 0.00 | 0.00 | 0.00 | 40 | 1013.3 |
| 20260508140304 | 53 | 68 | 2.0 | 7.0 | 0.00 | 0.00 | 0.00 | 41 | 1013.3 |
| 20260508135804 | 52 | 48 | 2.0 | 5.0 | 0.00 | 0.00 | 0.00 | 40 | 1013.4 |
| 20260508135306 | 52 | 12 | 2.0 | 5.0 | 0.00 | 0.00 | 0.00 | 40 | 1013.3 |
| 20260508134304 | 52 | 57 | 2.0 | 7.0 | 0.00 | 0.00 | 0.00 | 41 | 1013.0 |
| 20260508133805 | 51 | 92 | 2.0 | 6.0 | 0.00 | 0.00 | 0.00 | 41 | 1013.2 |
| 20260508133304 | 51 | 79 | 2.0 | 5.0 | 0.00 | 0.00 | 0.00 | 42 | 1013.1 |
| 20260508132804 | 50 | 82 | 2.0 | 7.0 | 0.00 | 0.00 | 0.00 | 42 | 1013.2 |
| 20260508132306 | 50 | 43 | 2.0 | 6.0 | 0.00 | 0.00 | 0.00 | 43 | 1013.1 |
| 20260508131804 | 50 | 54 | 2.0 | 6.0 | 0.00 | 0.00 | 0.00 | 44 | 1013.3 |
| 20260508130804 | 49 | 72 | 1.0 | 5.0 | 0.00 | 0.00 | 0.00 | 44 | 1013.3 |
| 20260508130304 | 49 | 57 | 2.0 | 6.0 | 0.00 | 0.00 | 0.00 | 45 | 1013.2 |
| 20260508125804 | 48 | 93 | 2.0 | 5.0 | 0.00 | 0.00 | 0.00 | 45 | 1013.0 |
| 20260508125306 | 48 | 89 | 1.0 | 5.0 | 0.00 | 0.00 | 0.00 | 45 | 1013.1 |
| 20260508124803 | 48 | 88 | 2.0 | 6.0 | 0.00 | 0.00 | 0.00 | 46 | 1013.1 |
| 20260508124304 | 47 | 117 | 3.0 | 5.0 | 0.00 | 0.00 | 0.00 | 47 | 1013.1 |
| 20260508123804 | 47 | 65 | 2.0 | 6.0 | 0.00 | 0.00 | 0.00 | 47 | 1013.0 |
| 20260508122803 | 46 | 95 | 2.0 | 3.0 | 0.00 | 0.00 | 0.00 | 49 | 1013.1 |
| 20260508122306 | 46 | 106 | 2.0 | 3.0 | 0.00 | 0.00 | 0.00 | 49 | 1013.1 |
| 20260508121804 | 46 | 103 | 1.0 | 3.0 | 0.00 | 0.00 | 0.00 | 50 | 1013.1 |
| 20260508115804 | 46 | 86 | 1.0 | 3.0 | 0.00 | 0.00 | 0.00 | 51 | 1012.9 |
| 20260508115306 | 46 | 24 | 2.0 | 5.0 | 0.00 | 0.00 | 0.00 | 52 | 1012.8 |
| 20260508114804 | 46 | 86 | 1.0 | 6.0 | 0.00 | 0.00 | 0.00 | 51 | 1013.0 |
| 20260508114304 | 46 | 96 | 1.0 | 6.0 | 0.00 | 0.00 | 0.00 | 52 | 1013.0 |
| 20260508113804 | 46 | 101 | 2.0 | 5.0 | 0.00 | 0.00 | 0.00 | 52 | 1012.9 |
| 20260508113304 | 46 | 98 | 2.0 | 5.0 | 0.00 | 0.00 | 0.00 | 53 | 1013.0 |
| 20260508112804 | 46 | 101 | 2.0 | 5.0 | 0.00 | 0.00 | 0.00 | 53 | 1013.0 |
| 20260508112307 | 46 | 107 | 1.0 | 2.0 | 0.00 | 0.00 | 0.00 | 54 | 1013.0 |
| 20260508111304 | 46 | 106 | 1.0 | 3.0 | 0.00 | 0.00 | 0.00 | 55 | 1012.8 |
| 20260508110804 | 45 | 105 | 1.0 | 3.0 | 0.00 | 0.00 | 0.00 | 55 | 1012.8 |
| 20260508105804 | 45 | 99 | 1.0 | 2.0 | 0.00 | 0.00 | 0.00 | 56 | 1012.8 |
| 20260508104804 | 46 | 111 | 1.0 | 2.0 | 0.00 | 0.00 | 0.00 | 56 | 1012.9 |
| 20260508104304 | 46 | 100 | 1.0 | 2.0 | 0.00 | 0.00 | 0.00 | 55 | 1013.0 |
| 20260508103804 | 46 | 72 | 1.0 | 3.0 | 0.00 | 0.00 | 0.00 | 55 | 1012.7 |
| 20260508103304 | 46 | 50 | 1.0 | 2.0 | 0.00 | 0.00 | 0.00 | 54 | 1012.9 |
| 20260508102804 | 46 | 23 | 1.0 | 2.0 | 0.00 | 0.00 | 0.00 | 54 | 1012.7 |
| 20260508102306 | 46 | 71 | 1.0 | 3.0 | 0.00 | 0.00 | 0.00 | 54 | 1012.7 |
| 20260508101804 | 46 | 36 | 1.0 | 5.0 | 0.00 | 0.00 | 0.00 | 55 | 1012.9 |
| 20260508101304 | 47 | 78 | 1.0 | 5.0 | 0.00 | 0.00 | 0.00 | 55 | 1012.9 |
| 20260508100804 | 47 | 29 | 2.0 | 5.0 | 0.00 | 0.00 | 0.00 | 55 | 1012.8 |
| 20260508095306 | 47 | 46 | 1.0 | 3.0 | 0.00 | 0.00 | 0.00 | 56 | 1012.8 |
| 20260508094804 | 47 | 36 | 1.0 | 2.0 | 0.00 | 0.00 | 0.00 | 56 | 1012.7 |
| 20260508094304 | 47 | 22 | 1.0 | 3.0 | 0.00 | 0.00 | 0.00 | 56 | 1012.8 |
| 20260508093304 | 46 | 19 | 0.0 | 1.0 | 0.00 | 0.00 | 0.00 | 56 | 1012.6 |
| 20260508092804 | 46 | 352 | 0.0 | 1.0 | 0.00 | 0.00 | 0.00 | 56 | 1012.7 |
| 20260508092312 | 47 | 352 | 0.0 | 0.0 | 0.00 | 0.00 | 0.00 | 56 | 1012.9 |
| 20260508091804 | 47 | 352 | 0.0 | 0.0 | 0.00 | 0.00 | 0.00 | 57 | 1012.7 |
| 20260508091304 | 47 | 352 | 0.0 | 0.0 | 0.00 | 0.00 | 0.00 | 56 | 1013.0 |
| 20260508090304 | 47 | 352 | 0.0 | 0.0 | 0.00 | 0.00 | 0.00 | 55 | 1013.0 |
| 20260508085307 | 47 | 356 | 1.0 | 2.0 | 0.00 | 0.00 | 0.00 | 55 | 1013.1 |
| 20260508084804 | 48 | 39 | 0.0 | 5.0 | 0.00 | 0.00 | 0.00 | 54 | 1013.0 |
| 20260508084305 | 48 | 104 | 2.0 | 5.0 | 0.00 | 0.00 | 0.00 | 55 | 1013.1 |
| 20260508083803 | 48 | 107 | 1.0 | 3.0 | 0.00 | 0.00 | 0.00 | 55 | 1012.9 |
| 20260508082804 | 48 | 95 | 1.0 | 2.0 | 0.00 | 0.00 | 0.00 | 54 | 1013.0 |
| 20260508082306 | 48 | 39 | 1.0 | 2.0 | 0.00 | 0.00 | 0.00 | 52 | 1013.0 |
| 20260508081804 | 49 | 63 | 1.0 | 2.0 | 0.00 | 0.00 | 0.00 | 53 | 1012.9 |
| 20260508081304 | 49 | 6 | 1.0 | 1.0 | 0.00 | 0.00 | 0.00 | 53 | 1013.1 |
| 20260508080803 | 49 | 4 | 1.0 | 2.0 | 0.00 | 0.00 | 0.00 | 53 | 1013.0 |
| 20260508080304 | 49 | 28 | 0.0 | 2.0 | 0.00 | 0.00 | 0.00 | 51 | 1013.0 |
| 20260508075308 | 49 | 44 | 1.0 | 2.0 | 0.00 | 0.00 | 0.00 | 51 | 1013.0 |
| 20260508074804 | 49 | 47 | 1.0 | 3.0 | 0.00 | 0.00 | 0.00 | 50 | 1013.2 |
| 20260508074304 | 49 | 18 | 1.0 | 2.0 | 0.00 | 0.00 | 0.00 | 50 | 1013.2 |
| 20260508073804 | 50 | 86 | 1.0 | 2.0 | 0.00 | 0.00 | 0.00 | 49 | 1013.1 |
| 20260508073303 | 50 | 63 | 1.0 | 3.0 | 0.00 | 0.00 | 0.00 | 49 | 1013.2 |
| 20260508072804 | 50 | 52 | 1.0 | 1.0 | 0.00 | 0.00 | 0.00 | 49 | 1013.2 |
| 20260508072307 | 50 | 100 | 1.0 | 2.0 | 0.00 | 0.00 | 0.00 | 49 | 1013.2 |
| 20260508071804 | 50 | 93 | 2.0 | 3.0 | 0.00 | 0.00 | 0.00 | 49 | 1013.2 |
| 20260508071304 | 50 | 96 | 1.0 | 2.0 | 0.00 | 0.00 | 0.00 | 49 | 1013.2 |
| 20260508070804 | 50 | 103 | 1.0 | 3.0 | 0.00 | 0.00 | 0.00 | 49 | 1013.2 |
| 20260508070304 | 50 | 103 | 2.0 | 5.0 | 0.00 | 0.00 | 0.00 | 49 | 1013.2 |
| 20260508064804 | 51 | 116 | 1.0 | 2.0 | 0.00 | 0.00 | 0.00 | 48 | 1013.3 |
| 20260508064304 | 52 | 129 | 1.0 | 2.0 | 0.00 | 0.00 | 0.00 | 49 | 1013.2 |
| 20260508063304 | 51 | 15 | 0.0 | 2.0 | 0.00 | 0.00 | 0.00 | 48 | 1013.1 |
| 20260508062306 | 51 | 37 | 1.0 | 2.0 | 0.00 | 0.00 | 0.00 | 49 | 1013.1 |
| 20260508061804 | 51 | 45 | 0.0 | 2.0 | 0.00 | 0.00 | 0.00 | 48 | 1013.1 |
| 20260508061304 | 51 | 25 | 0.0 | 2.0 | 0.00 | 0.00 | 0.00 | 48 | 1013.3 |
| 20260508060804 | 51 | 14 | 1.0 | 2.0 | 0.00 | 0.00 | 0.00 | 48 | 1013.3 |
| 20260508055804 | 51 | 15 | 0.0 | 1.0 | 0.00 | 0.00 | 0.00 | 47 | 1013.2 |
| 20260508055306 | 52 | 12 | 0.0 | 0.0 | 0.00 | 0.00 | 0.00 | 46 | 1013.2 |
| 20260508054804 | 52 | 50 | 0.0 | 0.0 | 0.00 | 0.00 | 0.00 | 46 | 1013.3 |
| 20260508054304 | 52 | 334 | 0.0 | 1.0 | 0.00 | 0.00 | 0.00 | 46 | 1013.4 |
| 20260508053804 | 52 | 297 | 1.0 | 1.0 | 0.00 | 0.00 | 0.00 | 45 | 1013.3 |
| 20260508053304 | 52 | 12 | 0.0 | 1.0 | 0.00 | 0.00 | 0.00 | 45 | 1013.1 |
| 20260508052804 | 52 | 324 | 0.0 | 1.0 | 0.00 | 0.00 | 0.00 | 45 | 1013.2 |
| 20260508052306 | 52 | 335 | 0.0 | 1.0 | 0.00 | 0.00 | 0.00 | 45 | 1013.4 |
| 20260508051804 | 52 | 339 | 1.0 | 2.0 | 0.00 | 0.00 | 0.00 | 45 | 1013.3 |
| 20260508050804 | 53 | 342 | 0.0 | 1.0 | 0.00 | 0.00 | 0.00 | 43 | 1013.3 |
| 20260508050304 | 53 | 349 | 0.0 | 0.0 | 0.00 | 0.00 | 0.00 | 43 | 1013.4 |
| 20260508044804 | 54 | 37 | 0.0 | 3.0 | 0.00 | 0.00 | 0.00 | 41 | 1013.3 |
| 20260508044304 | 54 | 117 | 1.0 | 2.0 | 0.00 | 0.00 | 0.00 | 42 | 1013.5 |
| 20260508043804 | 54 | 48 | 0.0 | 0.0 | 0.00 | 0.00 | 0.00 | 41 | 1013.6 |
| 20260508043304 | 54 | 13 | 0.0 | 0.0 | 0.00 | 0.00 | 0.00 | 40 | 1013.3 |
| 20260508042804 | 55 | 17 | 0.0 | 1.0 | 0.00 | 0.00 | 0.00 | 39 | 1013.2 |
| 20260508042307 | 55 | 348 | 0.0 | 1.0 | 0.00 | 0.00 | 0.00 | 40 | 1013.4 |
| 20260508041303 | 55 | 298 | 0.0 | 1.0 | 0.00 | 0.00 | 0.00 | 39 | 1013.3 |
| 20260508040803 | 56 | 30 | 0.0 | 1.0 | 0.00 | 0.00 | 0.00 | 39 | 1013.1 |
| 20260508040304 | 56 | 297 | 1.0 | 2.0 | 0.00 | 0.00 | 0.00 | 39 | 1013.2 |
| 20260508035804 | 56 | 318 | 0.0 | 1.0 | 0.00 | 0.00 | 0.00 | 38 | 1013.2 |
| 20260508035306 | 56 | 322 | 1.0 | 1.0 | 0.00 | 0.00 | 0.00 | 38 | 1013.2 |
| 20260508034804 | 57 | 341 | 0.0 | 1.0 | 0.00 | 0.00 | 0.00 | 38 | 1013.2 |
| 20260508034304 | 57 | 18 | 0.0 | 0.0 | 0.00 | 0.00 | 0.00 | 37 | 1013.4 |
| 20260508033804 | 57 | 18 | 0.0 | 1.0 | 0.00 | 0.00 | 0.00 | 37 | 1013.2 |
| 20260508033304 | 58 | 33 | 0.0 | 0.0 | 0.00 | 0.00 | 0.00 | 36 | 1013.2 |
| 20260508032804 | 58 | 102 | 0.0 | 0.0 | 0.00 | 0.00 | 0.00 | 35 | 1013.4 |
| 20260508032306 | 59 | 106 | 0.0 | 1.0 | 0.00 | 0.00 | 0.00 | 35 | 1013.1 |
| 20260508031804 | 59 | 152 | 0.0 | 0.0 | 0.00 | 0.00 | 0.00 | 34 | 1013.1 |
| 20260508031304 | 60 | 152 | 0.0 | 0.0 | 0.00 | 0.00 | 0.00 | 33 | 1013.1 |
| 20260508030804 | 61 | 152 | 0.0 | 1.0 | 0.00 | 0.00 | 0.00 | 32 | 1013.1 |
| 20260508024804 | 62 | 233 | 0.0 | 5.0 | 0.00 | 0.00 | 0.00 | 30 | 1012.9 |
| 20260508024304 | 62 | 120 | 2.0 | 5.0 | 0.00 | 0.00 | 0.00 | 30 | 1013.0 |
| 20260508023804 | 62 | 86 | 2.0 | 5.0 | 0.00 | 0.00 | 0.00 | 31 | 1013.0 |
| 20260508023304 | 63 | 342 | 1.0 | 3.0 | 0.00 | 0.00 | 0.00 | 31 | 1013.0 |
| 20260508022804 | 63 | 310 | 1.0 | 3.0 | 0.00 | 0.00 | 0.00 | 30 | 1012.9 |
| 20260508022306 | 63 | 238 | 2.0 | 8.0 | 0.00 | 0.00 | 0.00 | 29 | 1012.9 |
| 20260508021804 | 63 | 289 | 2.0 | 5.0 | 0.00 | 0.00 | 0.00 | 30 | 1012.9 |
| 20260508020804 | 63 | 340 | 3.0 | 7.0 | 0.00 | 0.00 | 0.00 | 30 | 1012.8 |
| 20260508020304 | 64 | 299 | 4.0 | 10.0 | 0.00 | 0.00 | 0.00 | 29 | 1012.9 |
| 20260508015804 | 64 | 251 | 2.0 | 3.0 | 0.00 | 0.00 | 0.00 | 29 | 1012.8 |
| 20260508015306 | 64 | 185 | 1.0 | 3.0 | 0.00 | 0.00 | 0.00 | 29 | 1012.6 |
| 20260508014804 | 64 | 116 | 1.0 | 3.0 | 0.00 | 0.00 | 0.00 | 29 | 1012.6 |
| 20260508014304 | 64 | 181 | 1.0 | 3.0 | 0.00 | 0.00 | 0.00 | 29 | 1012.6 |
| 20260508013304 | 64 | 112 | 1.0 | 3.0 | 0.00 | 0.00 | 0.00 | 29 | 1012.6 |
| 20260508012804 | 64 | 102 | 2.0 | 3.0 | 0.00 | 0.00 | 0.00 | 29 | 1012.6 |
| 20260508012307 | 64 | 137 | 1.0 | 5.0 | 0.00 | 0.00 | 0.00 | 28 | 1012.6 |
| 20260508011804 | 65 | 60 | 1.0 | 3.0 | 0.00 | 0.00 | 0.00 | 28 | 1012.4 |
| 20260508011304 | 65 | 118 | 1.0 | 2.0 | 0.00 | 0.00 | 0.00 | 28 | 1012.6 |
| 20260508010304 | 65 | 106 | 2.0 | 5.0 | 0.00 | 0.00 | 0.00 | 28 | 1012.5 |
| 20260508005803 | 65 | 93 | 2.0 | 6.0 | 0.00 | 0.00 | 0.00 | 28 | 1012.5 |
| 20260508004804 | 66 | 69 | 1.0 | 2.0 | 0.00 | 0.00 | 0.00 | 27 | 1012.5 |
| 20260508004304 | 66 | 120 | 1.0 | 9.0 | 0.00 | 0.00 | 0.00 | 27 | 1012.5 |
| 20260508003804 | 66 | 107 | 3.0 | 9.0 | 0.00 | 0.00 | 0.00 | 27 | 1012.5 |
| 20260508003303 | 66 | 105 | 2.0 | 5.0 | 0.00 | 0.00 | 0.00 | 27 | 1012.5 |
| 20260508002307 | 67 | 111 | 1.0 | 3.0 | 0.00 | 0.00 | 0.00 | 26 | 1012.5 |
| 20260508001804 | 67 | 73 | 2.0 | 7.0 | 0.00 | 0.00 | 0.00 | 27 | 1012.5 |
| 20260508000803 | 67 | 69 | 2.0 | 7.0 | 0.00 | 0.00 | 0.00 | 26 | 1012.4 |
| 20260508000305 | 67 | 106 | 2.0 | 3.0 | 0.00 | 0.00 | 0.00 | 26 | 1012.3 |
| 20260507235804 | 67 | 52 | 2.0 | 5.0 | 0.00 | 0.00 | 0.00 | 26 | 1012.4 |
| 20260507235306 | 67 | 114 | 1.0 | 12.0 | 0.00 | 0.00 | 0.00 | 26 | 1012.3 |
| 20260507234804 | 68 | 110 | 4.0 | 12.0 | 0.00 | 0.00 | 0.00 | 27 | 1012.3 |
| 20260507234304 | 68 | 91 | 2.0 | 6.0 | 0.00 | 0.00 | 0.00 | 26 | 1012.3 |
| 20260507233304 | 68 | 64 | 2.0 | 7.0 | 0.00 | 0.00 | 0.00 | 26 | 1012.2 |
| 20260507232804 | 68 | 97 | 3.0 | 8.0 | 0.00 | 0.00 | 0.00 | 26 | 1012.2 |
| 20260507232306 | 67 | 107 | 3.0 | 8.0 | 0.00 | 0.00 | 0.00 | 26 | 1012.3 |
| 20260507231803 | 67 | 2 | 1.0 | 6.0 | 0.00 | 0.00 | 0.00 | 27 | 1012.4 |
| 20260507231304 | 68 | 102 | 4.0 | 7.0 | 0.00 | 0.00 | 0.00 | 26 | 1012.2 |
| 20260507230804 | 68 | 53 | 2.0 | 6.0 | 0.00 | 0.00 | 0.00 | 27 | 1012.4 |
| 20260507230304 | 68 | 28 | 3.0 | 6.0 | 0.00 | 0.00 | 0.00 | 27 | 1012.3 |
| 20260507225804 | 68 | 57 | 4.0 | 7.0 | 0.00 | 0.00 | 0.00 | 26 | 1012.4 |
| 20260507225306 | 68 | 18 | 3.0 | 12.0 | 0.00 | 0.00 | 0.00 | 26 | 1012.4 |
| 20260507224804 | 68 | 104 | 3.0 | 5.0 | 0.00 | 0.00 | 0.00 | 26 | 1012.5 |
| 20260507224304 | 68 | 102 | 2.0 | 8.0 | 0.00 | 0.00 | 0.00 | 25 | 1012.4 |
| 20260507223803 | 68 | 45 | 2.0 | 9.0 | 0.00 | 0.00 | 0.00 | 26 | 1012.4 |
| 20260507223303 | 68 | 127 | 5.0 | 9.0 | 0.00 | 0.00 | 0.00 | 25 | 1012.4 |
| 20260507222803 | 68 | 124 | 3.0 | 10.0 | 0.00 | 0.00 | 0.00 | 25 | 1012.5 |
| 20260507221804 | 67 | 97 | 3.0 | 14.0 | 0.00 | 0.00 | 0.00 | 25 | 1012.4 |
| 20260507221303 | 67 | 119 | 3.0 | 7.0 | 0.00 | 0.00 | 0.00 | 26 | 1012.5 |
| 20260507220803 | 67 | 102 | 2.0 | 7.0 | 0.00 | 0.00 | 0.00 | 26 | 1012.4 |
| 20260507220304 | 67 | 86 | 2.0 | 6.0 | 0.00 | 0.00 | 0.00 | 27 | 1012.6 |
| 20260507215804 | 67 | 102 | 6.0 | 9.0 | 0.00 | 0.00 | 0.00 | 26 | 1012.4 |
| 20260507214804 | 67 | 111 | 3.0 | 9.0 | 0.00 | 0.00 | 0.00 | 26 | 1012.5 |
| 20260507214304 | 67 | 181 | 1.0 | 6.0 | 0.00 | 0.00 | 0.00 | 25 | 1012.5 |